When you browse on this site, cookies collect data to enhance your experience and personalize the content and advertising you see.
Visit our Privacy Policy to learn more. By continuing to use the site, you agree to this use of cookies and data.
EN

Hourly Weather Bihać

Today, 11 August, Tuesday

Time Temperature Precipitation Wind Pressure Humidity
00:00 +21°C° 0 mm 1 mps 710 mmHg 80%
01:00 +20°C° 0 mm 1 mps 710 mmHg 81%
02:00 +20°C° 0 mm 1 mps 710 mmHg 81%
03:00 +20°C° 0 mm 1 mps 710 mmHg 82%
04:00 +20°C° 0 mm 1 mps 710 mmHg 82%
05:00 +21°C° 0 mm 1 mps 710 mmHg 79%
06:00 +22°C° 0 mm 1 mps 711 mmHg 76%
07:00 +24°C° 0 mm 1 mps 711 mmHg 72%
08:00 +26°C° 0 mm 1 mps 712 mmHg 64%
09:00 +28°C° 0 mm 1 mps 712 mmHg 56%
10:00 +30°C° 0 mm 1 mps 712 mmHg 47%
11:00 +31°C° 0 mm 1 mps 712 mmHg 45%
12:00 +31°C° 0 mm 1 mps 712 mmHg 42%
13:00 +32°C° 0 mm 1 mps 712 mmHg 40%
14:00 +31°C° 0 mm 2 mps 712 mmHg 43%
15:00 +30°C° 0 mm 2 mps 712 mmHg 47%
16:00 +29°C° 0 mm 2 mps 712 mmHg 51%
17:00 +27°C° 0.1 mm 1 mps 711 mmHg 59%
18:00 +26°C° 0.1 mm 1 mps 711 mmHg 66%
19:00 +24°C° 0.1 mm 1 mps 711 mmHg 73%
20:00 +23°C° 0 mm 1 mps 711 mmHg 74%
21:00 +22°C° 0 mm 1 mps 711 mmHg 75%
22:00 +21°C° 0 mm 1 mps 711 mmHg 76%
23:00 +21°C° 0 mm 1 mps 711 mmHg 77%

Tomorrow, 12 August, Wednesday

Time Temperature Precipitation Wind Pressure Humidity
00:00 +21°C° 0 mm 1 mps 711 mmHg 78%
01:00 +19°C° 0 mm 0 mps 710 mmHg 79%
02:00 +18°C° 0 mm 0 mps 710 mmHg 79%
03:00 +20°C° 0 mm 1 mps 710 mmHg 80%
04:00 +20°C° 0 mm 1 mps 710 mmHg 80%
05:00 +21°C° 0 mm 1 mps 710 mmHg 77%
06:00 +22°C° 0 mm 1 mps 711 mmHg 75%
07:00 +24°C° 0 mm 1 mps 711 mmHg 73%
08:00 +26°C° 0 mm 1 mps 711 mmHg 65%
09:00 +28°C° 0 mm 1 mps 712 mmHg 57%
10:00 +30°C° 0 mm 1 mps 712 mmHg 49%
11:00 +30°C° 0.3 mm 1 mps 712 mmHg 50%
12:00 +30°C° 0.3 mm 2 mps 712 mmHg 50%
13:00 +30°C° 0.3 mm 2 mps 712 mmHg 51%
14:00 +29°C° 0.4 mm 2 mps 712 mmHg 56%
15:00 +28°C° 0.4 mm 2 mps 712 mmHg 61%
16:00 +27°C° 0.4 mm 2 mps 711 mmHg 67%
17:00 +25°C° 0.2 mm 2 mps 711 mmHg 72%
18:00 +24°C° 0.2 mm 2 mps 711 mmHg 77%
19:00 +23°C° 0.2 mm 1 mps 711 mmHg 82%
20:00 +22°C° 0 mm 1 mps 711 mmHg 82%
21:00 +22°C° 0 mm 1 mps 711 mmHg 82%
22:00 +21°C° 0 mm 1 mps 711 mmHg 81%
23:00 +21°C° 0 mm 1 mps 711 mmHg 81%

Day after tomorrow, 13 August, Thursday

Time Temperature Precipitation Wind Pressure Humidity
00:00 +21°C° 0 mm 1 mps 711 mmHg 81%
01:00 +20°C° 0 mm 1 mps 711 mmHg 81%
02:00 +20°C° 0 mm 1 mps 711 mmHg 81%
03:00 +20°C° 0 mm 1 mps 711 mmHg 81%
04:00 +20°C° 0 mm 1 mps 710 mmHg 81%
05:00 +21°C° 0 mm 1 mps 711 mmHg 79%
06:00 +22°C° 0 mm 1 mps 711 mmHg 76%
07:00 +22°C° 0 mm 0 mps 711 mmHg 74%
08:00 +26°C° 0 mm 1 mps 712 mmHg 65%
09:00 +28°C° 0 mm 1 mps 712 mmHg 57%
10:00 +30°C° 0 mm 1 mps 713 mmHg 48%
11:00 +31°C° 0 mm 1 mps 712 mmHg 46%
12:00 +31°C° 0 mm 2 mps 712 mmHg 44%
13:00 +31°C° 0 mm 2 mps 712 mmHg 42%
14:00 +31°C° 0 mm 2 mps 712 mmHg 43%
15:00 +31°C° 0 mm 2 mps 711 mmHg 44%
16:00 +31°C° 0 mm 2 mps 711 mmHg 45%
17:00 +28°C° 0 mm 1 mps 710 mmHg 52%
18:00 +26°C° 0 mm 1 mps 710 mmHg 59%
19:00 +24°C° 0 mm 1 mps 709 mmHg 66%
20:00 +23°C° 0 mm 1 mps 709 mmHg 67%
21:00 +23°C° 0 mm 1 mps 709 mmHg 67%
22:00 +22°C° 0 mm 1 mps 709 mmHg 68%
23:00 +22°C° 0 mm 1 mps 709 mmHg 68%

14 August, Friday

Time Temperature Precipitation Wind Pressure Humidity
00:00 +21°C° 0 mm 1 mps 709 mmHg 68%
01:00 +21°C° 0 mm 1 mps 709 mmHg 68%
02:00 +21°C° 0 mm 1 mps 709 mmHg 67%
03:00 +21°C° 0 mm 1 mps 708 mmHg 66%
04:00 +20°C° 0 mm 2 mps 708 mmHg 65%
05:00 +22°C° 0 mm 1 mps 708 mmHg 62%
06:00 +23°C° 0 mm 1 mps 708 mmHg 59%
07:00 +25°C° 0 mm 1 mps 709 mmHg 56%
08:00 +27°C° 0 mm 1 mps 709 mmHg 50%
09:00 +28°C° 0 mm 1 mps 709 mmHg 43%
10:00 +30°C° 0 mm 2 mps 710 mmHg 36%
11:00 +31°C° 0 mm 2 mps 709 mmHg 35%
12:00 +31°C° 0 mm 2 mps 709 mmHg 35%
13:00 +31°C° 0 mm 2 mps 709 mmHg 35%
14:00 +31°C° 0 mm 2 mps 708 mmHg 37%
15:00 +30°C° 0 mm 2 mps 708 mmHg 39%
16:00 +30°C° 0 mm 2 mps 708 mmHg 40%
17:00 +28°C° 0 mm 2 mps 708 mmHg 47%
18:00 +25°C° 0 mm 1 mps 708 mmHg 54%
19:00 +23°C° 0 mm 1 mps 707 mmHg 60%
20:00 +22°C° 0.1 mm 1 mps 707 mmHg 62%
21:00 +21°C° 0.1 mm 1 mps 708 mmHg 64%
22:00 +21°C° 0.1 mm 1 mps 708 mmHg 66%
23:00 +20°C° 0.1 mm 1 mps 708 mmHg 71%

15 August, Saturday

Time Temperature Precipitation Wind Pressure Humidity
00:00 +20°C° 0.1 mm 1 mps 708 mmHg 75%
01:00 +19°C° 0.1 mm 1 mps 708 mmHg 79%
02:00 +19°C° 0.1 mm 1 mps 708 mmHg 83%
03:00 +18°C° 0.1 mm 2 mps 707 mmHg 87%
04:00 +18°C° 0.1 mm 2 mps 707 mmHg 91%
05:00 +18°C° 0.1 mm 2 mps 708 mmHg 90%
06:00 +19°C° 0.1 mm 2 mps 708 mmHg 89%
07:00 +19°C° 0.1 mm 2 mps 708 mmHg 89%
08:00 +21°C° 0.2 mm 2 mps 708 mmHg 81%
09:00 +24°C° 0.2 mm 2 mps 709 mmHg 73%
10:00 +26°C° 0.2 mm 2 mps 709 mmHg 65%
11:00 +26°C° 1.4 mm 2 mps 709 mmHg 65%
12:00 +26°C° 1.4 mm 2 mps 709 mmHg 66%
13:00 +27°C° 1.4 mm 2 mps 709 mmHg 66%
14:00 +27°C° 0.9 mm 2 mps 708 mmHg 66%
15:00 +26°C° 0.9 mm 2 mps 708 mmHg 67%
16:00 +26°C° 0.9 mm 2 mps 708 mmHg 67%
17:00 +25°C° 0.5 mm 2 mps 708 mmHg 72%
18:00 +23°C° 0.5 mm 2 mps 708 mmHg 78%
19:00 +21°C° 0.5 mm 2 mps 708 mmHg 84%
20:00 +20°C° 0 mm 2 mps 708 mmHg 85%
21:00 +20°C° 0 mm 2 mps 708 mmHg 87%
22:00 +19°C° 0 mm 2 mps 708 mmHg 89%
23:00 +19°C° 0 mm 2 mps 708 mmHg 90%

16 August, Sunday

Time Temperature Precipitation Wind Pressure Humidity
00:00 +18°C° 0 mm 2 mps 708 mmHg 90%
01:00 +18°C° 0 mm 3 mps 708 mmHg 90%
02:00 +18°C° 0 mm 3 mps 708 mmHg 91%
03:00 +18°C° 0 mm 3 mps 708 mmHg 92%
04:00 +17°C° 0 mm 3 mps 708 mmHg 92%
05:00 +18°C° 0 mm 3 mps 708 mmHg 91%
06:00 +19°C° 0 mm 3 mps 708 mmHg 89%
07:00 +19°C° 0 mm 3 mps 708 mmHg 88%
08:00 +21°C° 0 mm 3 mps 709 mmHg 82%
09:00 +22°C° 0 mm 3 mps 709 mmHg 77%
10:00 +24°C° 0 mm 3 mps 710 mmHg 71%
11:00 +25°C° 0 mm 3 mps 710 mmHg 66%
12:00 +26°C° 0 mm 3 mps 710 mmHg 60%
13:00 +28°C° 0 mm 3 mps 710 mmHg 55%
14:00 +27°C° 0 mm 3 mps 710 mmHg 56%
15:00 +27°C° 0 mm 3 mps 710 mmHg 56%
16:00 +27°C° 0 mm 3 mps 709 mmHg 57%
17:00 +26°C° 0 mm 3 mps 709 mmHg 65%
18:00 +24°C° 0 mm 3 mps 709 mmHg 73%
19:00 +21°C° 0 mm 2 mps 709 mmHg 80%
20:00 +20°C° 0 mm 2 mps 709 mmHg 82%
21:00 +20°C° 0 mm 2 mps 709 mmHg 84%
22:00 +19°C° 0 mm 2 mps 709 mmHg 86%
23:00 +18°C° 0 mm 2 mps 709 mmHg 86%
Show more